QPF
0.02 0.02 0.02 0.02 0.02 0.03 0.02 0.03 0.04 0.05 0.02 0.01 0.01 0.02 0.04 0.09 0.10 0.06 0.03 0.01 0.00 0.00 0.01 0.03 0.04 0.06 0.08 0.14 0.26 0.45 0.53 0.40 0.28 0.25 0.19 0.12 0.06 0.02
0.02 0.02 0.02 0.03 0.03 0.04 0.04 0.04 0.04 0.05 0.04 0.02 0.01 0.01 0.05 0.06 0.07 0.07 0.06 0.03 0.01 0.01 0.01 0.03 0.06 0.09 0.11 0.15 0.19 0.27 0.36 0.37 0.28 0.21 0.17 0.15 0.11 0.05
0.02 0.03 0.03 0.05 0.06 0.07 0.07 0.07 0.06 0.06 0.05 0.04 0.02 0.01 0.04 0.04 0.03 0.04 0.07 0.06 0.04 0.03 0.03 0.03 0.07 0.13 0.19 0.23 0.21 0.20 0.21 0.25 0.26 0.19 0.11 0.07 0.05 0.04
0.02 0.04 0.06 0.07 0.09 0.08 0.08 0.09 0.08 0.07 0.06 0.04 0.03 0.02 0.02 0.03 0.03 0.05 0.08 0.09 0.07 0.05 0.06 0.06 0.10 0.12 0.16 0.23 0.28 0.27 0.22 0.20 0.19 0.14 0.08 0.03 0.02 0.01
0.03 0.06 0.08 0.08 0.07 0.07 0.08 0.08 0.06 0.05 0.05 0.04 0.02 0.02 0.04 0.03 0.04 0.06 0.07 0.10 0.10 0.08 0.07 0.08 0.11 0.15 0.14 0.15 0.19 0.24 0.21 0.16 0.11 0.09 0.06 0.03 0.01 0.00
0.02 0.05 0.08 0.11 0.09 0.08 0.06 0.04 0.04 0.04 0.04 0.05 0.04 0.03 0.04 0.05 0.06 0.06 0.06 0.11 0.11 0.10 0.09 0.08 0.10 0.17 0.16 0.11 0.09 0.11 0.12 0.12 0.09 0.06 0.03 0.01 0.01 0.00
0.02 0.04 0.09 0.14 0.13 0.14 0.10 0.06 0.04 0.03 0.04 0.05 0.06 0.06 0.06 0.07 0.08 0.08 0.08 0.10 0.11 0.10 0.09 0.07 0.06 0.08 0.11 0.12 0.10 0.09 0.08 0.06 0.04 0.03 0.02 0.01 0.00 0.00
0.04 0.04 0.06 0.10 0.11 0.10 0.10 0.09 0.08 0.05 0.04 0.05 0.08 0.09 0.09 0.11 0.11 0.14 0.12 0.08 0.09 0.12 0.09 0.07 0.05 0.06 0.07 0.08 0.10 0.09 0.07 0.05 0.03 0.02 0.01 0.01 0.00 0.00
0.04 0.03 0.04 0.07 0.07 0.07 0.08 0.08 0.08 0.11 0.12 0.10 0.14 0.15 0.13 0.13 0.15 0.19 0.17 0.11 0.09 0.15 0.12 0.09 0.06 0.05 0.05 0.08 0.11 0.08 0.06 0.04 0.03 0.02 0.01 0.01 0.01 0.00
0.03 0.03 0.03 0.04 0.06 0.05 0.07 0.08 0.10 0.15 0.19 0.19 0.27 0.30 0.23 0.19 0.20 0.27 0.27 0.18 0.13 0.12 0.11 0.10 0.08 0.05 0.05 0.06 0.07 0.06 0.04 0.02 0.01 0.01 0.01 0.00 0.00 0.00
0.02 0.02 0.02 0.02 0.02 0.01 0.02 0.04 0.05 0.09 0.13 0.15 0.20 0.28 0.30 0.31 0.34 0.38 0.42 0.30 0.23 0.19 0.13 0.11 0.09 0.06 0.07 0.07 0.05 0.02 0.01 0.01 0.00 0.00 0.00 0.00 0.00 0.00
0.01 0.01 0.02 0.02 0.01 0.00 0.00 0.01 0.01 0.03 0.06 0.08 0.12 0.20 0.27 0.33 0.41 0.53 0.65 0.51 0.34 0.28 0.20 0.13 0.09 0.05 0.08 0.10 0.06 0.02 0.00 0.00 0.00 0.00 0.00 0.00 0.00 0.00
0.01 0.00 0.01 0.01 0.01 0.00 0.00 0.00 0.00 0.01 0.02 0.05 0.08 0.15 0.21 0.29 0.40 0.53 0.66 0.65 0.45 0.32 0.24 0.17 0.12 0.05 0.06 0.08 0.06 0.03 0.00 0.00 0.00 0.00 0.00 0.00 0.00 0.00
0.01 0.00 0.00 0.00 0.00 0.00 0.00 0.00 0.00 0.00 0.01 0.02 0.05 0.09 0.14 0.20 0.30 0.43 0.57 0.63 0.57 0.39 0.25 0.17 0.12 0.06 0.04 0.06 0.06 0.04 0.02 0.01 0.01 0.01 0.00 0.00 0.00 0.00
0.00 0.00 0.00 0.00 0.00 0.00 0.00 0.00 0.00 0.00 0.00 0.01 0.02 0.05 0.08 0.13 0.17 0.23 0.33 0.44 0.48 0.41 0.29 0.23 0.17 0.10 0.07 0.06 0.06 0.04 0.03 0.02 0.01 0.01 0.00 0.00 0.00 0.00
0.00 0.00 0.00 0.00 0.00 0.00 0.00 0.00 0.00 0.00 0.00 0.00 0.00 0.01 0.03 0.05 0.09 0.14 0.16 0.22 0.28 0.31 0.28 0.24 0.21 0.16 0.13 0.10 0.08 0.05 0.03 0.01 0.01 0.00 0.00 0.00 0.00 0.00
0.00 0.00 0.00 0.00 0.00 0.00 0.00 0.00 0.00 0.00 0.00 0.00 0.00 0.00 0.01 0.02 0.04 0.07 0.11 0.13 0.15 0.16 0.16 0.16 0.15 0.13 0.11 0.09 0.08 0.05 0.02 0.01 0.00 0.00 0.00 0.00 0.00 0.00
0.00 0.00 0.00 0.00 0.00 0.00 0.00 0.00 0.00 0.00 0.00 0.00 0.00 0.00 0.00 0.00 0.01 0.02 0.04 0.06 0.08 0.08 0.07 0.06 0.07 0.06 0.05 0.05 0.03 0.02 0.00 0.00 0.00 0.00 0.00 0.00 0.00 0.00
0.00 0.00 0.00 0.00 0.00 0.00 0.00 0.00 0.00 0.00 0.00 0.00 0.00 0.00 0.00 0.00 0.00 0.00 0.01 0.02 0.03 0.03 0.03 0.02 0.01 0.01 0.01 0.01 0.01 0.00 0.00 0.00 0.00 0.00 0.00 0.00 0.00 0.00
0.00 0.00 0.00 0.00 0.00 0.00 0.00 0.00 0.00 0.00 0.00 0.00 0.00 0.00 0.00 0.00 0.00 0.00 0.00 0.00 0.00 0.01 0.00 0.00 0.00 0.00 0.00 0.00 0.00 0.00 0.00 0.00 0.00 0.00 0.00 0.00 0.00 0.00
0.00 0.00 0.00 0.00 0.00 0.00 0.00 0.00 0.00 0.00 0.00 0.00 0.00 0.00 0.00 0.00 0.00 0.00 0.00 0.00 0.00 0.00 0.00 0.00 0.00 0.00 0.00 0.00 0.00 0.00 0.00 0.00 0.00 0.00 0.00 0.00 0.00 0.00
0.00 0.00 0.00 0.00 0.00 0.00 0.00 0.00 0.00 0.00 0.00 0.00 0.00 0.00 0.00 0.00 0.00 0.00 0.00 0.00 0.00 0.00 0.00 0.00 0.00 0.00 0.00 0.00 0.00 0.00 0.00 0.00 0.00 0.00 0.00 0.00 0.00 0.00
0.00 0.00 0.00 0.00 0.00 0.00 0.00 0.00 0.00 0.00 0.00 0.00 0.00 0.00 0.00 0.00 0.00 0.00 0.00 0.00 0.00 0.00 0.00 0.00 0.00 0.00 0.00 0.00 0.00 0.00 0.00 0.00 0.00 0.00 0.00 0.00 0.00 0.00
MSLP
1019.57 1019.07 1018.56 1017.99 1017.29 1016.41 1015.34 1014.11 1012.78 1011.42 1010.12 1008.97 1008.03 1007.36 1006.94 1006.75 1006.76 1006.89 1007.10 1007.34 1007.58 1007.82 1008.07 1008.34 1008.66 1009.05 1009.53 1010.08 1010.72 1011.41 1012.15 1012.92 1013.71 1014.51 1015.31 1016.10 1016.87 1017.61
1018.98 1018.44 1017.91 1017.32 1016.62 1015.75 1014.71 1013.52 1012.25 1010.95 1009.73 1008.66 1007.81 1007.20 1006.84 1006.70 1006.72 1006.86 1007.04 1007.23 1007.41 1007.58 1007.74 1007.92 1008.16 1008.48 1008.89 1009.41 1010.03 1010.73 1011.50 1012.33 1013.19 1014.07 1014.96 1015.84 1016.70 1017.53
1018.33 1017.72 1017.14 1016.51 1015.78 1014.91 1013.90 1012.76 1011.56 1010.36 1009.25 1008.29 1007.54 1007.03 1006.74 1006.64 1006.69 1006.81 1006.96 1007.10 1007.22 1007.30 1007.39 1007.50 1007.67 1007.93 1008.31 1008.80 1009.42 1010.13 1010.94 1011.82 1012.75 1013.71 1014.69 1015.66 1016.60 1017.51
1017.72 1017.05 1016.41 1015.73 1014.97 1014.10 1013.11 1012.03 1010.91 1009.82 1008.82 1007.98 1007.34 1006.91 1006.68 1006.62 1006.66 1006.76 1006.87 1006.95 1007.00 1007.03 1007.06 1007.12 1007.26 1007.50 1007.86 1008.35 1008.98 1009.73 1010.57 1011.50 1012.48 1013.50 1014.55 1015.59 1016.60 1017.57
1017.24 1016.54 1015.85 1015.13 1014.35 1013.48 1012.52 1011.50 1010.47 1009.48 1008.59 1007.85 1007.30 1006.93 1006.73 1006.67 1006.68 1006.74 1006.78 1006.81 1006.80 1006.79 1006.79 1006.84 1006.99 1007.24 1007.63 1008.16 1008.83 1009.61 1010.48 1011.44 1012.46 1013.52 1014.60 1015.68 1016.73 1017.74
1016.98 1016.26 1015.56 1014.83 1014.04 1013.19 1012.27 1011.31 1010.36 1009.46 1008.65 1007.99 1007.48 1007.14 1006.94 1006.83 1006.78 1006.76 1006.74 1006.70 1006.65 1006.61 1006.62 1006.71 1006.91 1007.23 1007.69 1008.29 1009.01 1009.83 1010.74 1011.71 1012.73 1013.79 1014.87 1015.95 1017.00 1018.01
1016.97 1016.27 1015.58 1014.86 1014.10 1013.27 1012.40 1011.50 1010.62 1009.78 1009.04 1008.42 1007.93 1007.57 1007.31 1007.12 1006.98 1006.86 1006.75 1006.65 1006.56 1006.54 1006.59 1006.75 1007.04 1007.47 1008.04 1008.74 1009.53 1010.40 1011.34 1012.31 1013.31 1014.33 1015.36 1016.39 1017.41 1018.39
1017.21 1016.56 1015.90 1015.21 1014.48 1013.70 1012.88 1012.04 1011.22 1010.43 1009.73 1009.12 1008.61 1008.19 1007.84 1007.55 1007.29 1007.06 1006.84 1006.67 1006.57 1006.56 1006.68 1006.94 1007.36 1007.94 1008.64 1009.46 1010.34 1011.27 1012.22 1013.18 1014.13 1015.08 1016.03 1016.98 1017.92 1018.85
1017.67 1017.07 1016.46 1015.82 1015.14 1014.40 1013.63 1012.85 1012.07 1011.33 1010.65 1010.02 1009.47 1008.98 1008.53 1008.11 1007.71 1007.35 1007.04 1006.80 1006.67 1006.69 1006.88 1007.26 1007.82 1008.55 1009.41 1010.35 1011.34 1012.33 1013.30 1014.23 1015.13 1015.99 1016.83 1017.67 1018.51 1019.34
1018.29 1017.75 1017.19 1016.60 1015.96 1015.27 1014.55 1013.82 1013.09 1012.38 1011.71 1011.07 1010.47 1009.90 1009.34 1008.79 1008.26 1007.77 1007.35 1007.04 1006.89 1006.93 1007.19 1007.68 1008.37 1009.25 1010.25 1011.32 1012.41 1013.46 1014.45 1015.36 1016.19 1016.95 1017.69 1018.40 1019.12 1019.84
1019.02 1018.54 1018.02 1017.47 1016.87 1016.23 1015.55 1014.87 1014.18 1013.50 1012.85 1012.20 1011.56 1010.92 1010.27 1009.61 1008.96 1008.36 1007.83 1007.45 1007.26 1007.30 1007.61 1008.16 1008.96 1009.95 1011.07 1012.25 1013.43 1014.54 1015.55 1016.44 1017.22 1017.90 1018.53 1019.13 1019.73 1020.34
1019.82 1019.37 1018.89 1018.37 1017.80 1017.20 1016.57 1015.93 1015.29 1014.66 1014.03 1013.39 1012.74 1012.06 1011.34 1010.59 1009.85 1009.15 1008.54 1008.07 1007.83 1007.85 1008.16 1008.75 1009.60 1010.66 1011.85 1013.11 1014.34 1015.50 1016.53 1017.41 1018.15 1018.78 1019.32 1019.82 1020.32 1020.83
1020.65 1020.23 1019.77 1019.27 1018.74 1018.17 1017.58 1017.00 1016.41 1015.83 1015.24 1014.64 1014.00 1013.31 1012.57 1011.78 1010.98 1010.20 1009.51 1008.98 1008.67 1008.64 1008.90 1009.47 1010.32 1011.39 1012.60 1013.89 1015.15 1016.33 1017.36 1018.25 1018.97 1019.56 1020.05 1020.48 1020.89 1021.31
1021.49 1021.09 1020.66 1020.18 1019.67 1019.14 1018.60 1018.07 1017.54 1017.03 1016.50 1015.96 1015.37 1014.71 1013.98 1013.18 1012.36 1011.54 1010.81 1010.21 1009.83 1009.73 1009.92 1010.42 1011.21 1012.22 1013.40 1014.65 1015.89 1017.06 1018.09 1018.97 1019.68 1020.24 1020.70 1021.09 1021.44 1021.80
1022.33 1021.96 1021.54 1021.09 1020.62 1020.13 1019.64 1019.16 1018.70 1018.26 1017.82 1017.35 1016.82 1016.23 1015.55 1014.80 1013.99 1013.18 1012.42 1011.79 1011.35 1011.16 1011.26 1011.65 1012.32 1013.23 1014.31 1015.47 1016.65 1017.76 1018.76 1019.61 1020.31 1020.86 1021.30 1021.66 1021.98 1022.29
1023.16 1022.81 1022.42 1022.01 1021.57 1021.12 1020.69 1020.27 1019.89 1019.52 1019.16 1018.78 1018.34 1017.84 1017.24 1016.57 1015.82 1015.05 1014.31 1013.66 1013.18 1012.92 1012.91 1013.18 1013.71 1014.47 1015.40 1016.43 1017.49 1018.51 1019.43 1020.23 1020.90 1021.43 1021.85 1022.19 1022.49 1022.76
1023.93 1023.62 1023.28 1022.90 1022.51 1022.11 1021.73 1021.38 1021.06 1020.77 1020.48 1020.18 1019.85 1019.44 1018.95 1018.38 1017.73 1017.04 1016.36 1015.74 1015.24 1014.93 1014.83 1014.98 1015.36 1015.94 1016.69 1017.55 1018.45 1019.33 1020.14 1020.86 1021.47 1021.96 1022.35 1022.67 1022.94 1023.17
1024.63 1024.36 1024.06 1023.74 1023.40 1023.06 1022.73 1022.43 1022.16 1021.93 1021.71 1021.49 1021.24 1020.93 1020.55 1020.09 1019.56 1018.99 1018.40 1017.84 1017.38 1017.05 1016.89 1016.93 1017.17 1017.58 1018.14 1018.81 1019.52 1020.23 1020.90 1021.50 1022.02 1022.44 1022.79 1023.07 1023.30 1023.50
1025.21 1024.99 1024.75 1024.48 1024.19 1023.90 1023.62 1023.36 1023.13 1022.94 1022.76 1022.59 1022.41 1022.19 1021.92 1021.58 1021.18 1020.73 1020.25 1019.80 1019.40 1019.09 1018.91 1018.88 1019.00 1019.26 1019.64 1020.11 1020.63 1021.16 1021.67 1022.13 1022.53 1022.87 1023.15 1023.37 1023.56 1023.71
1025.64 1025.47 1025.28 1025.07 1024.83 1024.59 1024.35 1024.12 1023.91 1023.73 1023.58 1023.44 1023.30 1023.14 1022.95 1022.72 1022.44 1022.12 1021.78 1021.44 1021.13 1020.88 1020.71 1020.65 1020.69 1020.83 1021.06 1021.36 1021.70 1022.05 1022.39 1022.70 1022.98 1023.22 1023.42 1023.58 1023.71 1023.81
1025.90 1025.77 1025.63 1025.47 1025.29 1025.08 1024.86 1024.65 1024.45 1024.27 1024.12 1023.98 1023.86 1023.74 1023.61 1023.46 1023.29 1023.09 1022.88 1022.66 1022.45 1022.28 1022.16 1022.09 1022.09 1022.15 1022.27 1022.43 1022.62 1022.82 1023.01 1023.19 1023.35 1023.49 1023.60 1023.70 1023.77 1023.83
1025.96 1025.88 1025.78 1025.66 1025.51 1025.34 1025.14 1024.94 1024.74 1024.55 1024.38 1024.24 1024.12 1024.01 1023.92 1023.83 1023.73 1023.63 1023.53 1023.42 1023.32 1023.23 1023.17 1023.13 1023.12 1023.14 1023.19 1023.26 1023.33 1023.42 1023.50 1023.57 1023.63 1023.69 1023.73 1023.77 1023.79 1023.80
1025.83 1025.77 1025.70 1025.61 1025.49 1025.34 1025.16 1024.97 1024.77 1024.57 1024.39 1024.23 1024.10 1024.01 1023.93 1023.88 1023.84 1023.81 1023.79 1023.77 1023.75 1023.75 1023.74 1023.74 1023.75 1023.77 1023.78 1023.80 1023.82 1023.83 1023.83 1023.84 1023.84 1023.84 1023.83 1023.83 1023.82 1023.79
Thickness
5263 5275 5283 5290 5297 5310 5330 5355 5379 5410 5448 5479 5497 5517 5531 5545 5557 5565 5574 5583 5591 5598 5605 5613 5620 5626 5631 5635 5638 5639 5639 5636 5635 5633 5632 5630 5629 5629
5253 5265 5273 5281 5288 5299 5316 5339 5365 5391 5422 5458 5478 5498 5513 5528 5541 5550 5558 5568 5576 5585 5593 5602 5610 5616 5622 5627 5630 5632 5632 5628 5626 5624 5622 5621 5621 5620
5244 5255 5264 5273 5283 5294 5309 5330 5354 5378 5407 5437 5456 5476 5493 5508 5523 5534 5544 5553 5563 5572 5582 5591 5600 5607 5613 5618 5622 5624 5624 5621 5618 5614 5612 5611 5610 5609
5234 5245 5256 5267 5278 5291 5305 5324 5347 5371 5396 5420 5441 5459 5476 5492 5505 5518 5530 5542 5551 5561 5571 5581 5590 5598 5604 5610 5613 5615 5615 5612 5608 5604 5602 5600 5598 5596
5224 5236 5248 5260 5274 5288 5303 5320 5339 5363 5384 5406 5427 5445 5462 5478 5492 5505 5517 5529 5540 5550 5560 5571 5580 5588 5594 5599 5601 5603 5603 5601 5598 5594 5590 5587 5585 5584
5214 5226 5239 5253 5267 5283 5301 5317 5334 5354 5373 5393 5413 5431 5447 5464 5478 5492 5503 5515 5527 5538 5549 5560 5569 5575 5582 5587 5590 5590 5589 5586 5583 5580 5577 5575 5572 5570
5203 5216 5229 5244 5258 5273 5290 5306 5326 5346 5363 5382 5400 5417 5432 5447 5464 5479 5490 5501 5512 5524 5535 5545 5555 5562 5565 5568 5570 5572 5572 5571 5568 5565 5562 5560 5557 5555
5193 5205 5218 5233 5247 5261 5276 5291 5309 5328 5345 5363 5381 5398 5412 5428 5446 5463 5477 5489 5500 5512 5523 5528 5537 5542 5547 5551 5553 5555 5554 5552 5550 5548 5546 5544 5542 5541
5183 5195 5207 5221 5236 5248 5262 5276 5291 5308 5324 5338 5355 5372 5390 5408 5427 5451 5468 5479 5485 5496 5508 5511 5519 5523 5528 5531 5533 5534 5533 5532 5530 5530 5529 5528 5527 5525
5173 5184 5196 5210 5226 5238 5250 5264 5278 5292 5307 5322 5338 5355 5372 5391 5410 5429 5451 5460 5466 5475 5491 5495 5499 5505 5509 5511 5513 5514 5513 5512 5511 5511 5510 5509 5510 5509
5160 5171 5185 5198 5215 5228 5241 5255 5267 5280 5293 5307 5323 5340 5356 5376 5395 5413 5431 5448 5454 5456 5469 5478 5479 5483 5484 5487 5491 5494 5495 5494 5492 5492 5493 5492 5492 5493
5146 5157 5172 5187 5201 5216 5228 5243 5257 5267 5281 5296 5311 5327 5342 5358 5373 5386 5404 5433 5445 5444 5451 5461 5461 5467 5457 5453 5461 5466 5470 5471 5472 5472 5474 5475 5476 5477
5134 5145 5158 5173 5187 5202 5215 5229 5242 5254 5266 5280 5294 5308 5323 5338 5351 5365 5381 5405 5425 5432 5437 5448 5448 5450 5450 5438 5433 5439 5446 5447 5448 5450 5452 5456 5458 5461
5124 5135 5147 5160 5173 5187 5201 5214 5228 5241 5254 5265 5277 5289 5302 5316 5332 5346 5362 5381 5401 5413 5422 5432 5435 5438 5438 5428 5420 5418 5422 5424 5427 5431 5435 5438 5440 5442
5117 5129 5139 5149 5160 5172 5186 5200 5213 5226 5239 5251 5260 5270 5282 5297 5315 5332 5348 5364 5381 5393 5402 5410 5417 5419 5420 5417 5408 5405 5405 5406 5411 5415 5418 5420 5422 5425
5109 5118 5128 5138 5149 5161 5173 5184 5196 5209 5221 5233 5244 5256 5269 5284 5299 5314 5329 5343 5357 5367 5375 5384 5391 5397 5396 5396 5396 5392 5393 5392 5394 5398 5401 5403 5406 5409
5102 5109 5119 5129 5139 5150 5161 5171 5182 5194 5205 5217 5229 5243 5256 5269 5282 5294 5306 5317 5329 5339 5346 5354 5361 5368 5371 5373 5373 5375 5376 5377 5379 5382 5386 5389 5392 5395
5097 5101 5108 5117 5127 5137 5148 5158 5169 5179 5190 5201 5212 5225 5238 5250 5263 5274 5285 5294 5304 5313 5321 5330 5340 5347 5350 5347 5349 5354 5358 5361 5364 5368 5374 5376 5377 5380
5092 5094 5100 5108 5117 5127 5137 5147 5157 5167 5176 5186 5197 5208 5220 5232 5244 5255 5265 5274 5282 5290 5297 5307 5319 5330 5334 5330 5325 5334 5342 5346 5352 5356 5360 5362 5364 5367
5089 5091 5095 5102 5110 5119 5129 5138 5148 5158 5167 5175 5184 5194 5204 5215 5226 5236 5246 5254 5263 5271 5277 5286 5295 5304 5312 5315 5317 5319 5327 5333 5338 5342 5345 5348 5350 5354
5088 5090 5093 5098 5104 5112 5121 5131 5140 5150 5158 5166 5174 5182 5191 5200 5209 5219 5229 5239 5245 5253 5261 5268 5277 5287 5295 5302 5305 5306 5311 5318 5323 5328 5331 5334 5337 5340
5091 5091 5093 5097 5101 5107 5115 5124 5133 5142 5151 5159 5166 5174 5182 5190 5198 5206 5214 5221 5229 5238 5246 5255 5264 5274 5281 5286 5288 5293 5299 5306 5312 5318 5322 5324 5325 5327
5101 5098 5097 5098 5101 5105 5110 5117 5125 5134 5142 5150 5159 5167 5174 5182 5189 5197 5204 5211 5218 5226 5234 5242 5251 5259 5266 5272 5277 5282 5288 5295 5301 5307 5312 5316 5318 5321